COSMOS 249 DEB, 3793

Orbit data source: Space-Track

COSMOS 249 DEB, 3793 is space debris in LEO originally from a launch on Sun, 20 Oct 1968 UTC launched from the Tyuratam Missile And Space Complex (TTMTR). Debris objects in space refer to the collection of defunct objects orbiting the Earth. Examples of debris include non-operational satellites, rocket bodies, and fragments generated from explosions, collisions, or faulty payload assembly.

Loading next visibility...
Identifier
3793, 1968-091BA
Orbit
LEO
Country
Flag of CISCIS
Related business
Manufacturer
Unknown
Mission
Spacecraft
Bus & Motor
Unknown
Mass
Unknown
Launch date (UTC)
1968-10-20 (58 years ago)
Launch vehicle
Unknown
Launch site
Tyuratam Missile And Space Complex (TTMTR)
Object type
Payload
Rocket body
Debris
Shape & HBR
Unknown shape, 1.1 m
Radar Cross Section
Medium (>0.1 m² and <1 m²)

Expand to show TLE details & history
Last TLE update: 8 hours ago

TLE from 8 hours ago
0 COSMOS 249 DEB
1  3793U 68091BA  26220.10988645  .00000504  00000-0  53508-3 0  9992
2  3793  62.2197 116.5265 0610275 347.0140  11.5730 13.21771130708241
Epoch: 2026-08-08T02:38Z
TLE epoch observation values (Epoch: 2026-08-08T02:38:14.189Z)
Latitude
0.00001°
Longitude
120.34144°
Altitude
729.079 km
Speed
7.711 km/s
True Right ascension
07h 46m 06s
True Declination
0° 00' 00"
Sunlit
Object was in daylight at epoch
Visualization orbit readout
Latitude
Unknown
Longitude
Unknown
Altitude
Unknown
Speed
Unknown
Apparent Right ascension
Unknown
Apparent Declination
Unknown
Sunlit
N/A
Visualization observer readout
Local Sidereal Time
00:45:09
Azimuth
Unknown
Elevation
Unknown
Doppler factor
Unknown
Orbital elements
Apogee altitude
1,638.014 km
Perigee altitude
715.879 km
Semi-major axis
7,555.083 km
Eccentricity
0.06103
Inclination
62.2197°
RAAN
116.5265°
Arg. of periapsis
347.014°
True anomaly
13.08869°
Mean anomaly
11.573°
Eccentric anomaly
12.31902°
Mean motion
3.3051 °/min
Orbital period
108.92 mins
BSTAR
0.00053508
Loading maneuver chart data...
Computing Atmospheric mass density...

Documentation

Showing up to 5 results
|